EST,Max TemperatureF,Mean TemperatureF,Min TemperatureF,Max Dew PointF,MeanDew PointF,Min DewpointF,Max Humidity, Mean Humidity, Min Humidity, Max Sea Level PressureIn, Mean Sea Level PressureIn, Min Sea Level PressureIn, Max VisibilityMiles, Mean VisibilityMiles, Min VisibilityMiles, Max Wind SpeedMPH, Mean Wind SpeedMPH, Max Gust SpeedMPH,PrecipitationIn, CloudCover, Events, WindDirDegrees
2011-12-1,50,35,20,25,23,18,88,59,29,30.41,30.35,30.26,10,10,9,8,2,12,0.00,3,,247
2011-12-2,51,35,18,28,21,15,92,58,24,30.59,30.46,30.30,10,9,7,15,2,21,0.00,0,,271
2011-12-3,57,38,19,32,25,17,92,63,33,30.65,30.56,30.44,10,9,6,9,2,15,0.00,0,,157
2011-12-4,65,46,27,30,26,23,85,54,22,30.46,30.39,30.28,10,10,10,8,2,15,0.00,0,,131
2011-12-5,62,46,30,50,39,28,92,70,48,30.35,30.24,30.06,10,10,7,16,5,23,0.05,3,Rain,158
2011-12-6,59,53,47,56,52,45,100,90,80,30.06,29.98,29.95,10,6,0,10,3,14,0.14,8,Fog-Rain,114
2011-12-7,47,38,29,45,36,23,100,93,85,30.07,29.86,29.73,10,4,0,21,4,29,1.80,8,Fog-Rain-Snow,316
2011-12-8,35,29,22,25,21,18,92,74,56,30.35,30.26,30.02,10,5,0,17,3,25,T,4,Fog,270
2011-12-9,43,32,20,29,20,16,92,66,39,30.35,30.27,30.20,10,4,0,12,1,14,0.00,5,Fog,251
2011-12-10,34,25,16,28,21,13,92,68,43,30.58,30.42,30.27,10,9,5,17,4,23,T,4,,302
2011-12-11,43,27,11,20,14,9,92,60,28,30.69,30.60,30.48,10,10,8,3,0,6,0.00,0,,-1
2011-12-12,48,30,12,24,17,9,92,59,25,30.58,30.53,30.43,10,9,5,8,0,10,0.00,1,,330
2011-12-13,51,34,17,32,24,15,92,63,33,30.57,30.51,30.45,10,8,5,10,1,13,T,3,,280
2011-12-14,48,41,33,43,36,32,100,90,80,30.42,30.30,30.16,10,4,0,3,0,5,0.05,7,Fog-Rain,285
2011-12-15,63,48,32,52,46,31,100,78,56,30.19,30.02,29.94,10,8,3,24,9,38,0.09,6,Rain,217
2011-12-16,53,43,32,45,30,25,78,74,69,30.31,30.20,30.03,10,10,10,21,5,32,0.00,7,,303
2011-12-17,32,30,27,24,21,19,78,71,63,30.29,30.24,30.17,10,8,2,15,6,18,T,8,Snow,280
2011-12-18,33,26,19,25,22,17,92,77,61,30.35,30.27,30.16,10,6,2,14,3,21,0.02,6,Snow,261
2011-12-19,48,33,17,32,23,14,92,63,34,30.32,30.22,30.12,10,9,6,17,4,25,T,5,Rain,224
2011-12-20,52,44,35,41,37,32,100,76,52,30.21,30.14,30.05,10,10,5,13,2,17,0.03,6,Rain,215
2011-12-21,60,53,45,52,45,39,93,75,57,30.04,29.91,29.79,10,10,5,21,6,28,0.15,6,Rain,200
2011-12-22,54,45,35,45,41,34,93,76,59,30.15,30.00,29.82,10,7,2,14,1,25,0.45,5,Rain,291
2011-12-23,46,41,35,43,36,30,92,84,76,30.28,30.14,29.88,10,7,2,17,4,25,0.20,8,Rain,296
2011-12-24,39,31,23,32,25,21,92,76,59,30.48,30.38,30.22,10,10,7,21,4,29,0.02,5,Rain,283
2011-12-25,48,34,19,27,20,16,96,62,28,30.39,30.25,30.12,10,10,8,21,7,33,0.00,2,,255
2011-12-26,44,36,27,26,23,20,85,63,40,30.43,30.30,30.11,10,10,10,18,4,25,0.00,3,,281
2011-12-27,50,40,30,41,31,12,85,55,25,30.08,29.63,29.40,10,7,2,36,12,49,0.53,7,Rain-Snow,226
2011-12-28,34,30,25,30,25,18,82,70,58,30.06,29.86,29.65,10,6,1,23,9,37,0.04,7,Snow,278
2011-12-29,45,37,28,26,23,18,78,57,36,30.07,29.97,29.85,10,10,10,12,5,17,T,7,,172
2011-12-30,58,44,30,43,29,25,85,57,28,30.03,29.88,29.50,10,9,1,13,4,18,T,3,Rain,168
2011-12-31,49,42,34,41,36,32,85,73,61,30.17,29.98,29.80,10,9,3,22,6,29,0.17,8,Rain,230